Location: Aldenham
(51.6667°N, 0.3500°W)
Time: 06:33:53
(UTC+00:00)

USA 281 - Pass Details

Date: 18 November 2025
Orbit: 1079 x 1080 km, 106.0° (Epoch: 08 December)

Event Time Altitude Azimuth Distance (km) Brightness Sun altitude
Exits shadow 18:11:31 30° 89° (E) 1,840 3.8 -18.9°
Maximum altitude 18:13:54 40° 47° (NE) 1,554 3.7 -19.3°
Drops below altitude 10° 18:19:54 10° 341° (NNW) 2,932 5.6 -20.2°
Sets 18:22:34 0° 335° (NNW) 3,890 6.4 -20.6°
